Weather Roundup
Issued by NWS Corpus Christi, TX

Home | Current Version | Previous Version | Text Only | Print | Product List | Glossary On
Versions: 1 2 3 4 5 6 7 8 9 10 11 12 13 14 15 16 17 18 19 20 21 22 23 24 25 26 27 28 29 30 31 32 33 34 35 36 37 38 39 40 41 42 43 44 45 46 47 48 49 50
000
ASUS44 KCRP 141510
HRRCRP

SOUTH TEXAS REGIONAL WEATHER ROUNDUP
NATIONAL WEATHER SERVICE CORPUS CHRISTI TX
900 AM CST SUN FEB 14 2016


TXZ229>244-141600-
...CORPUS CHRISTI AREA OBSERVATIONS...

CITY           SKY/WX    TMP DP  RH WIND       PRES   REMARKS
CORPUS CHRISTI MOSUNNY   69  61  75 SE16      30.04F
NAS CORPUS CHR SUNNY     69  64  84 SE17      30.04F
ROCKPORT       SUNNY     69  62  78 SE10      30.05F
KINGSVILLE NAS SUNNY     64  64 100 SE8       30.03F
ALICE          PTSUNNY   61  61 100 SE7       30.03F
FALFURRIAS     CLOUDY    60  58  95 SE6       30.04S VSB<1/4
$$

...VICTORIA AREA OBSERVATIONS...

CITY           SKY/WX    TMP DP  RH WIND       PRES   REMARKS
VICTORIA       MOSUNNY   64  62  93 S12       30.04F
BEEVILLE       FAIR      56  56 100 SE10      30.03F
PLEASANTON     FOG       56  56  98 SE5       30.04S VSB 1/4
SAN ANTONIO    CLOUDY    58  56  93 S14       30.03S FOG
$$

...LAREDO AREA OBSERVATIONS...

CITY           SKY/WX    TMP DP  RH WIND       PRES   REMARKS
LAREDO         MOSUNNY   61  58  90 SE12      30.01F
COTULLA        CLOUDY    60  57  89 S13       30.02R
DEL RIO        CLOUDY    59  53  80 SE13      29.98S
MCALLEN        SUNNY     64  58  80 SE8       30.04S
HEBBRONVILLE   NOT AVBL
$$

...OTHER TEXAS OBSERVATIONS...

CITY           SKY/WX    TMP DP  RH WIND       PRES   REMARKS
BROWNSVILLE    SUNNY     69  63  81 S14G22    30.04R
HOUSTON        PTSUNNY   65  57  75 S6        30.06F
COL. STATION   MOSUNNY   60  57  89 S8        30.05R
AUSTIN         CLOUDY    58  56  93 S10       30.02S
WACO           CLOUDY    61  53  75 S17       29.97F
FORT WORTH     CLOUDY    61  53  75 S14       29.97R
WICHITA FALLS  SUNNY     54  47  77 S9        29.88F
LUBBOCK        CLOUDY    42  29  59 N14       30.01R
EL PASO        PTSUNNY   45  14  28 N3        30.04S
$$

...MARINE OBSERVATIONS...

STATION/POSITION TIME  SKY/WX   TEMP    WIND        PRES    VSBY  WAVE   SWELL
                                AIR SEA DIR/SP/G                  HT/PER HT/PER
                 (UTC)          (F)     (DEG/KT/KT) (MB)    (MI)  (FT/S) (FT/S)
PORT ARANSAS     1500            65 65  130/ 10/ 11 1018.0F
BUOY 90 E PORT A 1450            69 64  160/ 17/ 21 1018.3F         5/ 6
BUOY 45 SE BAFFI 1450            69 68  170/ 16/ 17 1017.4R         4/ 6
BUOY 200 E PT IS 1450                                 N/A           3/ 7   2/ 7
BUOY 15 E GALVES 1450            61 60  120/  6/  8 1019.4R         3/ 6   2/ 6
$$



USA.gov is the U.S. government's official web portal to all federal, state and local government web resources and services.